Location: Unspecified
(42.0334°N, 93.6656°W)
Time: 02:45:20
(UTC-06:00)

Amateur Radio Satellites - All Passes

Search period start: 26 November 2014 02:15
Search period end: 27 November 2014 02:15
Location: Unspecified, 42.0334°N, 93.6656°W

Satellite Date Start Highest point End Downlink Frequencies (MHz)
Time Altitude Azimuth
Oscar 19 26 Nov 02:17:13 02:22:20 62° 287° (WNW) 02:27:25 437.125/150
HORYU 2 26 Nov 02:25:40 02:28:01 14° 91° (E) 02:30:22 437.375
BEESAT 26 Nov 02:29:16 02:30:40 11° 271° (W) 02:32:05 436.000
KKS-1 26 Nov 02:53:37 02:57:14 24° 265° (W) 03:00:52 437.445
RS-15 26 Nov 03:02:30 03:12:09 35° 254° (WSW) 03:22:12 29.354- 29.394
PCSat 26 Nov 03:09:49 03:13:03 16° 39° (NE) 03:16:17 145.827
ITAMSAT 1 26 Nov 03:10:18 03:15:20 52° 289° (WNW) 03:20:19 435.822/435.867
SO-50 26 Nov 03:16:38 03:20:41 34° 115° (ESE) 03:24:51 436.795
ISS 26 Nov 03:22:04 03:24:13 16° 6° (N) 03:26:22 145.825
AO-7 26 Nov 03:22:23 03:28:59 25° 93° (E) 03:35:32 29.400- 29.500
Gurwin Techsat 1B 26 Nov 03:42:26 03:47:30 46° 290° (WNW) 03:52:32 435.225
BEESAT 3 26 Nov 03:49:05 03:52:05 19° 43° (NE) 03:55:03 437.485
MOZHAYETS 4 26 Nov 03:57:08 04:01:29 44° 71° (ENE) 04:05:52
YUBILEINY 26 Nov 03:58:06 04:06:14 41° 288° (WNW) 04:14:24 435.215
HORYU 2 26 Nov 04:00:38 04:05:03 57° 287° (WNW) 04:09:27 437.375
BEESAT 2 26 Nov 04:04:19 04:07:41 23° 45° (NE) 04:11:01 435.950
STRAND 1 26 Nov 04:36:36 04:38:02 11° 57° (ENE) 04:39:28 437.568
AIST 2 26 Nov 04:38:48 04:42:24 25° 46° (NE) 04:45:58 435.215
PCSat 26 Nov 04:51:54 04:57:21 80° 60° (ENE) 05:02:46 145.827
SO-50 26 Nov 04:57:11 05:01:14 31° 314° (NW) 05:05:24 436.795
ISS 26 Nov 04:58:29 05:01:34 35° 26° (NNE) 05:04:39 145.825
PRISM 26 Nov 05:08:14 05:12:17 48° 72° (ENE) 05:16:22 437.425
AO-7 26 Nov 05:14:05 05:22:25 73° 292° (WNW) 05:30:43 29.400- 29.500
JAS-2 26 Nov 05:24:26 05:31:32 66° 100° (E) 05:37:44 435.910
BEESAT 3 26 Nov 05:26:32 05:30:39 56° 241° (WSW) 05:34:42 437.485
MOZHAYETS 4 26 Nov 05:35:41 05:38:55 19° 268° (W) 05:42:10
CUBESAT XI-V 26 Nov 05:38:44 05:43:06 38° 70° (ENE) 05:47:28 437.345
BEESAT 2 26 Nov 05:42:09 05:46:09 42° 243° (WSW) 05:50:04 435.950
Cubesat XI-IV 26 Nov 05:50:11 05:54:44 28° 95° (E) 05:59:14 437.490
O/OREOS (USA 219) 26 Nov 06:08:22 06:12:52 86° 112° (ESE) 06:17:22 437.305
STRAND 1 26 Nov 06:11:13 06:16:22 81° 75° (ENE) 06:21:32 437.568
AIST 2 26 Nov 06:17:09 06:21:09 38° 244° (WSW) 06:25:04 435.215
CUTE-I 26 Nov 06:31:03 06:36:21 65° 102° (ESE) 06:41:37 437.470
ISS 26 Nov 06:35:12 06:38:11 32° 223° (SW) 06:41:09 145.825
PCSat 26 Nov 06:37:21 06:40:02 14° 257° (WSW) 06:42:42 145.827
PRISM 26 Nov 06:45:43 06:48:06 15° 268° (W) 06:50:30 437.425
AIST 1 26 Nov 07:02:35 07:06:59 79° 264° (W) 07:11:18
AO-7 26 Nov 07:08:44 07:13:48 18° 312° (NW) 07:18:52 29.400- 29.500
JAS-2 26 Nov 07:10:22 07:15:52 25° 302° (WNW) 07:20:55 435.910
CUBESAT XI-V 26 Nov 07:16:56 07:20:38 23° 267° (W) 07:24:22 437.345
Cubesat XI-IV 26 Nov 07:29:59 07:34:53 38° 292° (WNW) 07:39:44 437.490
HO-68 26 Nov 07:31:47 07:33:39 11° 86° (E) 07:35:31 435.675
GONETS M04 26 Nov 07:51:07 07:59:29 51° 89° (E) 08:07:54
O/OREOS (USA 219) 26 Nov 07:51:19 07:52:55 12° 310° (NW) 07:54:31 437.305
STRAND 1 26 Nov 07:54:13 07:56:09 12° 271° (W) 07:58:05 437.568
BRITE-PL 26 Nov 08:12:07 08:14:13 14° 91° (E) 08:16:19 437.365/2234.400
CUTE-I 26 Nov 08:12:25 08:15:53 18° 299° (WNW) 08:19:20 437.470
SEEDS 26 Nov 08:19:31 08:22:08 16° 92° (E) 08:24:44 437.485
AAUSAT CUBESAT 2 26 Nov 08:35:40 08:38:33 18° 92° (E) 08:41:24 437.432
DOVE 4 26 Nov 08:37:05 08:39:19 14° 92° (E) 08:41:33 437.250
CANX-2 26 Nov 08:46:47 08:50:50 39° 98° (E) 08:54:52 2200.000
COMPASS 1 26 Nov 08:50:29 08:54:12 29° 96° (E) 08:57:54 437.405
DX 1 26 Nov 08:50:34 08:51:37 11° 90° (E) 08:52:40 434.975-435.025
NANOSAT C BR1 26 Nov 08:57:56 08:59:11 11° 61° (ENE) 09:00:27 145.865
QB50P1 26 Nov 09:06:47 09:09:01 14° 63° (ENE) 09:11:16 145.935-145.965
TIGRISAT 26 Nov 09:07:45 09:10:50 20° 66° (ENE) 09:13:56 435.000
CINEMA 3 26 Nov 09:10:22 09:13:32 20° 94° (E) 09:16:45 145.822/145.860
HO-68 26 Nov 09:15:22 09:22:33 71° 104° (ESE) 09:29:40 435.675
BUGSAT 1 26 Nov 09:15:49 09:18:11 15° 64° (ENE) 09:20:32 437.445
GOMX 1 26 Nov 09:18:49 09:22:54 55° 100° (E) 09:27:05 467.674
ZACube-1 26 Nov 09:18:52 09:20:10 11° 90° (E) 09:21:29 437.345
UNISAT 6 26 Nov 09:20:56 09:24:34 28° 68° (ENE) 09:28:12 437.425
CUTE 1.7 & AOD 2 26 Nov 09:21:15 09:25:34 88° 105° (ESE) 09:29:52 437.475
POPSAT HIP 1 26 Nov 09:30:13 09:33:40 24° 68° (ENE) 09:37:06 437.405
AISAT 26 Nov 09:46:39 09:49:11 15° 92° (E) 09:51:42 437.250
UKube-1 26 Nov 09:48:10 09:52:22 46° 100° (E) 09:56:31 .
GONETS M04 26 Nov 09:48:34 09:56:31 37° 289° (WNW) 10:04:34
BRITE-PL 26 Nov 09:49:04 09:53:03 47° 287° (WNW) 09:57:04 437.365/2234.400
ANTELSAT 26 Nov 09:49:05 09:53:15 56° 73° (ENE) 09:57:27 437.575/2403.000
FUNcube-1 26 Nov 09:51:53 09:55:29 26° 96° (E) 09:59:07 145.935
SEEDS 26 Nov 09:54:07 09:58:12 45° 288° (WNW) 10:02:17 437.485
Oscar 11 26 Nov 09:59:07 10:03:29 75° 102° (ESE) 10:07:50 145.826/435.025
POLYITAN 1 26 Nov 10:03:07 10:07:17 56° 73° (ENE) 10:11:27 437.675
QB50P2 26 Nov 10:04:59 10:09:10 59° 74° (ENE) 10:13:22 145.880/145.840
AAUSAT CUBESAT 2 26 Nov 10:10:25 10:14:23 40° 288° (WNW) 10:18:21 437.432
DUCHIFAT 1 26 Nov 10:10:46 10:15:00 67° 75° (ENE) 10:19:13 145.980
DOVE 4 26 Nov 10:13:21 10:17:22 48° 287° (WNW) 10:21:29 437.250
DELFI C3 26 Nov 10:13:51 10:18:01 85° 284° (WNW) 10:22:09 145.870
UWE-3 26 Nov 10:18:20 10:22:33 62° 101° (E) 10:26:51 435.000/436.395/437.385
CUBEBUG 2 26 Nov 10:18:45 10:23:00 73° 102° (ESE) 10:27:20 437.445
50 SAT 26 Nov 10:20:34 10:24:03 27° 96° (E) 10:27:31 437.505
CANX-2 26 Nov 10:23:27 10:26:30 19° 294° (WNW) 10:29:34 2200.000
DX 1 26 Nov 10:24:00 10:28:20 68° 286° (WNW) 10:32:37 434.975-435.025
COMPASS 1 26 Nov 10:26:21 10:29:49 25° 292° (WNW) 10:33:17 437.405
NANOSAT C BR1 26 Nov 10:30:14 10:34:29 73° 258° (WSW) 10:38:45 145.865
HUMSAT D 26 Nov 10:33:33 10:37:35 46° 99° (E) 10:41:38 437.325/437.525
QB50P1 26 Nov 10:40:17 10:44:28 56° 260° (W) 10:48:40 145.935-145.965
TIGRISAT 26 Nov 10:43:26 10:47:22 36° 262° (W) 10:51:19 435.000
CINEMA 3 26 Nov 10:47:01 10:50:50 34° 289° (WNW) 10:54:45 145.822/145.860
BUGSAT 1 26 Nov 10:49:05 10:53:15 53° 260° (W) 10:57:25 437.445
ZACube-1 26 Nov 10:52:45 10:56:56 63° 285° (WNW) 11:01:12 437.345
VELOX 1 26 Nov 10:55:12 10:59:39 81° 103° (ESE) 11:04:03 145.980
ESTCUBE 1 26 Nov 10:55:17 10:59:20 31° 96° (E) 11:03:21 437.505/2401.250
UNISAT 6 26 Nov 10:57:46 11:01:20 25° 265° (W) 11:04:54 437.425
GOMX 1 26 Nov 10:58:39 11:00:38 13° 296° (WNW) 11:02:37 467.674
HO-68 26 Nov 11:04:06 11:09:36 25° 303° (WNW) 11:15:05 435.675
POPSAT HIP 1 26 Nov 11:05:43 11:09:27 29° 264° (W) 11:13:12 437.405
TISAT 1 26 Nov 11:11:56 11:12:23 10° 89° (E) 11:12:49 437.305
SPROUT 26 Nov 11:21:37 11:23:25 12° 90° (E) 11:25:13 437.525
AISAT 26 Nov 11:21:50 11:26:08 51° 288° (WNW) 11:30:24 437.250
UKube-1 26 Nov 11:25:21 11:28:10 17° 296° (WNW) 11:30:59 .
FUNcube-1 26 Nov 11:28:13 11:31:47 27° 291° (WNW) 11:35:24 145.935
ANTELSAT 26 Nov 11:28:34 11:30:26 13° 270° (W) 11:32:18 437.575/2403.000
CUBEBUG 1 26 Nov 11:33:14 11:37:37 77° 102° (ESE) 11:41:56 437.445
Oscar 11 26 Nov 11:37:42 11:39:02 11° 299° (WNW) 11:40:23 145.826/435.025
POLYITAN 1 26 Nov 11:41:41 11:43:35 13° 269° (W) 11:45:29 437.675
QB50P2 26 Nov 11:43:46 11:45:28 12° 270° (W) 11:47:10 145.880/145.840
SO-50 26 Nov 11:47:18 11:51:52 38° 49° (NE) 11:56:26 436.795
DUCHIFAT 1 26 Nov 11:50:29 11:51:19 11° 270° (W) 11:52:08 145.980
50 SAT 26 Nov 11:55:58 11:59:16 24° 292° (WNW) 12:02:35 437.505
Oscar 19 26 Nov 11:56:29 12:00:36 25° 65° (ENE) 12:04:44 437.125/150
UWE-3 26 Nov 11:56:45 11:58:38 13° 297° (WNW) 12:00:31 435.000/436.395/437.385
CUBEBUG 2 26 Nov 11:58:00 11:59:09 11° 298° (WNW) 12:00:19 437.445
HUMSAT D 26 Nov 12:10:30 12:13:03 16° 295° (WNW) 12:15:35 437.325/437.525
YUBILEINY 26 Nov 12:11:13 12:17:45 23° 64° (ENE) 12:24:14 435.215
ESTCUBE 1 26 Nov 12:32:20 12:36:06 26° 293° (WNW) 12:39:50 437.505/2401.250
VELOX 1 26 Nov 12:34:28 12:35:34 11° 300° (WNW) 12:36:41 145.980
CUSAT 1 26 Nov 12:40:52 12:43:16 30° 96° (E) 12:45:37 437.405
AUBIESAT-1 26 Nov 12:42:33 12:45:57 19° 96° (E) 12:49:17 437.475
TISAT 1 26 Nov 12:44:29 12:48:41 68° 285° (WNW) 12:52:50 437.305
M-CUBED/EXP-1 PRIME 26 Nov 12:47:43 12:51:36 23° 98° (E) 12:55:24 437.505
BEESAT 26 Nov 12:48:32 12:51:59 20° 93° (E) 12:55:25 436.000
ITAMSAT 1 26 Nov 12:49:59 12:54:33 32° 67° (ENE) 12:59:07 435.822/435.867
SPROUT 26 Nov 12:55:40 12:59:53 58° 286° (WNW) 13:04:04 437.525
DANDE 26 Nov 13:08:24 13:11:10 72° 99° (E) 13:13:46 436.750
CUBEBUG 1 26 Nov 13:12:07 13:13:21 11° 300° (WNW) 13:14:35 437.445
VERMONT LUNAR 26 Nov 13:13:22 13:13:59 10° 145° (SE) 13:14:36 437.305
Gurwin Techsat 1B 26 Nov 13:24:29 13:29:20 38° 68° (ENE) 13:34:12 435.225
HORYU 2 26 Nov 13:25:17 13:27:44 15° 62° (ENE) 13:30:12 437.375
SO-50 26 Nov 13:28:06 13:32:18 29° 246° (WSW) 13:36:31 436.795
Oscar 19 26 Nov 13:34:55 13:39:43 41° 262° (W) 13:44:33 437.125/150
ITUPSAT 1 26 Nov 13:43:32 13:48:20 68° 102° (ESE) 13:53:06 437.325
SWISSCUBE 26 Nov 13:54:18 13:59:08 85° 285° (WNW) 14:03:54 437.505
STARS 26 Nov 14:03:12 14:05:48 15° 92° (E) 14:08:24 437.465
YUBILEINY 26 Nov 14:06:52 14:15:35 80° 265° (W) 14:24:14 435.215
AUBIESAT-1 26 Nov 14:16:24 14:21:12 54° 293° (WNW) 14:25:53 437.475
AO-7 26 Nov 14:21:45 14:29:08 38° 59° (ENE) 14:36:33 29.400- 29.500
M-CUBED/EXP-1 PRIME 26 Nov 14:22:05 14:26:47 45° 294° (WNW) 14:31:23 437.505
BEESAT 26 Nov 14:25:28 14:30:03 45° 289° (WNW) 14:34:36 436.000
ITAMSAT 1 26 Nov 14:29:17 14:33:58 33° 263° (W) 14:38:40 435.822/435.867
O/OREOS (USA 219) 26 Nov 14:39:31 14:42:46 19° 55° (NE) 14:46:01 437.305
PHONESAT 2.4 26 Nov 14:39:46 14:42:55 27° 155° (SSE) 14:46:06 2401.200-2431.200
KKS-1 26 Nov 14:43:32 14:47:57 63° 101° (ESE) 14:52:20 437.445
VERMONT LUNAR 26 Nov 14:48:28 14:51:50 37° 160° (SSE) 14:55:12 437.305
HORYU 2 26 Nov 14:59:35 15:03:56 58° 259° (W) 15:08:20 437.375
MaSat-1 26 Nov 15:02:56 15:05:54 68° 115° (ESE) 15:08:36 437.345
Gurwin Techsat 1B 26 Nov 15:04:49 15:09:20 28° 265° (W) 15:13:54 435.225
RS-15 26 Nov 15:14:12 15:24:05 41° 108° (ESE) 15:33:55 29.354- 29.394
ITUPSAT 1 26 Nov 15:23:03 15:25:40 15° 299° (WNW) 15:28:16 437.325
SWISSCUBE 26 Nov 15:35:14 15:36:12 11° 302° (WNW) 15:37:10 437.505
JAS-2 26 Nov 15:35:18 15:42:06 36° 63° (ENE) 15:49:01 435.910
STARS 26 Nov 15:38:19 15:42:34 49° 288° (WNW) 15:46:48 437.465
MOZHAYETS 4 26 Nov 15:55:17 15:55:45 10° 88° (E) 15:56:12
YUBILEINY 26 Nov 16:06:29 16:10:51 15° 285° (WNW) 16:15:14 435.215
AO-7 26 Nov 16:13:37 16:21:38 53° 258° (WSW) 16:29:45 29.400- 29.500
CUTE-I 26 Nov 16:16:15 16:19:22 16° 60° (ENE) 16:22:29 437.470
PHONESAT 2.4 26 Nov 16:17:44 16:21:25 63° 172° (S) 16:25:06 2401.200-2431.200
O/OREOS (USA 219) 26 Nov 16:18:08 16:22:24 45° 253° (WSW) 16:26:40 437.305
KKS-1 26 Nov 16:21:50 16:24:04 14° 298° (WNW) 16:26:19 437.445
VERMONT LUNAR 26 Nov 16:26:29 16:30:06 70° 177° (S) 16:33:43 437.305
Cubesat XI-IV 26 Nov 17:12:27 17:17:36 49° 70° (ENE) 17:22:45 437.490
JAS-2 26 Nov 17:19:18 17:26:44 54° 262° (W) 17:34:27 435.910
RS-15 26 Nov 17:25:12 17:35:58 60° 311° (NW) 17:46:50 29.354- 29.394
MOZHAYETS 4 26 Nov 17:28:51 17:33:32 81° 284° (WNW) 17:38:11
CUTE-I 26 Nov 17:53:26 17:58:47 76° 257° (WSW) 18:04:10 437.470
PHONESAT 2.4 26 Nov 17:56:25 18:00:06 62° 189° (S) 18:03:47 2401.200-2431.200
GONETS M04 26 Nov 18:01:14 18:08:18 26° 65° (ENE) 18:15:16
HO-68 26 Nov 18:02:45 18:04:45 11° 47° (NE) 18:06:45 435.675
VERMONT LUNAR 26 Nov 18:04:55 18:08:27 50° 194° (SSW) 18:11:59 437.305
STRAND 1 26 Nov 18:22:02 18:26:17 26° 95° (E) 18:30:30 437.568
PRISM 26 Nov 18:26:28 18:30:44 78° 103° (ESE) 18:34:56 437.425
Cubesat XI-IV 26 Nov 18:53:49 18:57:55 22° 267° (W) 19:02:03 437.490
CUBESAT XI-V 26 Nov 19:12:14 19:16:56 90° 104° (ESE) 19:21:34 437.345
SEEDS 26 Nov 19:13:45 19:15:34 13° 63° (ENE) 19:17:24 437.485
BEESAT 3 26 Nov 19:22:27 19:25:48 25° 113° (ESE) 19:29:13 437.485
BRITE-PL 26 Nov 19:22:57 19:26:35 21° 67° (ENE) 19:30:03 437.365/2234.400
AAUSAT CUBESAT 2 26 Nov 19:28:44 19:30:50 14° 63° (ENE) 19:32:57 437.432
AIST 1 26 Nov 19:32:22 19:36:41 60° 95° (E) 19:41:03
PCSat 26 Nov 19:33:46 19:39:07 69° 116° (ESE) 19:44:32 145.827
PHONESAT 2.4 26 Nov 19:35:27 19:38:35 26° 205° (SSW) 19:41:42 2401.200-2431.200
BEESAT 2 26 Nov 19:38:07 19:41:48 33° 115° (ESE) 19:45:34 435.950
CANX-2 26 Nov 19:40:43 19:44:24 30° 69° (ENE) 19:48:07 2200.000
RS-15 26 Nov 19:42:43 19:51:16 25° 341° (NNW) 19:59:58 29.354- 29.394
COMPASS 1 26 Nov 19:43:17 19:46:30 22° 67° (ENE) 19:49:44 437.405
DOVE 4 26 Nov 19:43:35 19:46:32 17° 66° (ENE) 19:49:24 437.250
HO-68 26 Nov 19:43:57 19:50:55 55° 67° (ENE) 19:57:54 435.675
VERMONT LUNAR 26 Nov 19:44:01 19:46:29 17° 210° (SSW) 19:48:56 437.305
DX 1 26 Nov 19:47:07 19:48:38 12° 60° (ENE) 19:50:10 434.975-435.025
GONETS M04 26 Nov 19:57:10 20:05:58 73° 266° (W) 20:14:40
STRAND 1 26 Nov 20:00:51 20:05:33 38° 292° (WNW) 20:10:13 437.568
PRISM 26 Nov 20:04:47 20:05:38 11° 300° (WNW) 20:06:28 437.425
CINEMA 3 26 Nov 20:13:21 20:16:35 21° 67° (ENE) 20:19:44 145.822/145.860
CUTE 1.7 & AOD 2 26 Nov 20:14:41 20:18:52 66° 75° (ENE) 20:23:04 437.475
AIST 2 26 Nov 20:15:45 20:19:42 41° 116° (ESE) 20:23:44 435.215
ZACube-1 26 Nov 20:17:21 20:17:50 10° 61° (ENE) 20:18:18 437.345
GOMX 1 26 Nov 20:27:17 20:32:00 66° 75° (ENE) 20:36:25 467.674
UKube-1 26 Nov 20:43:46 20:47:53 43° 71° (ENE) 20:52:00 .
AISAT 26 Nov 20:45:49 20:48:32 16° 63° (ENE) 20:51:16 437.250
SEEDS 26 Nov 20:46:45 20:50:53 61° 259° (W) 20:55:04 437.485
FUNcube-1 26 Nov 20:49:04 20:52:20 23° 68° (ENE) 20:55:36 145.935
CUBESAT XI-V 26 Nov 20:52:41 20:53:37 11° 301° (WNW) 20:54:33 437.345
Oscar 11 26 Nov 20:54:18 20:58:32 61° 74° (ENE) 21:02:48 145.826/435.025
BRITE-PL 26 Nov 21:00:08 21:04:53 43° 261° (W) 21:09:19 437.365/2234.400
BEESAT 3 26 Nov 21:00:08 21:03:53 33° 311° (NW) 21:07:42 437.485
AAUSAT CUBESAT 2 26 Nov 21:02:00 21:06:03 54° 260° (W) 21:10:10 437.432
DELFI C3 26 Nov 21:03:00 21:07:00 63° 75° (ENE) 21:11:04 145.870
50 SAT 26 Nov 21:10:43 21:13:37 19° 67° (ENE) 21:16:31 437.505
AIST 1 26 Nov 21:12:51 21:14:48 13° 292° (WNW) 21:16:45
UWE-3 26 Nov 21:16:21 21:20:28 53° 73° (ENE) 21:24:32 435.000/436.395/437.385
BEESAT 2 26 Nov 21:16:35 21:20:08 27° 313° (NW) 21:23:43 435.950
CANX-2 26 Nov 21:17:00 21:20:22 23° 266° (W) 21:23:45 2200.000
CUBEBUG 2 26 Nov 21:17:48 21:22:01 64° 75° (ENE) 21:26:10 437.445
COMPASS 1 26 Nov 21:18:20 21:22:04 32° 264° (W) 21:25:50 437.405
PCSat 26 Nov 21:18:59 21:23:04 21° 316° (NW) 21:27:10 145.827
DOVE 4 26 Nov 21:19:36 21:24:02 46° 261° (W) 21:28:15 437.250
DX 1 26 Nov 21:19:53 21:24:16 75° 257° (WSW) 21:28:40 434.975-435.025
HUMSAT D 26 Nov 21:26:38 21:30:23 35° 71° (ENE) 21:34:09 437.325/437.525
HO-68 26 Nov 21:32:51 21:38:55 29° 265° (W) 21:45:02 435.675
ANTELSAT 26 Nov 21:42:52 21:44:30 12° 90° (E) 21:46:08 437.575/2403.000
ZACube-1 26 Nov 21:49:25 21:53:37 76° 258° (WSW) 21:57:48 437.345
CINEMA 3 26 Nov 21:49:35 21:53:37 35° 262° (W) 21:57:31 145.822/145.860
VELOX 1 26 Nov 21:53:24 21:57:52 77° 75° (ENE) 22:02:21 145.980
CUTE 1.7 & AOD 2 26 Nov 21:54:28 21:55:15 10° 271° (W) 21:56:02 437.475
AIST 2 26 Nov 21:55:01 21:58:29 24° 315° (NW) 22:02:00 435.215
ESTCUBE 1 26 Nov 21:55:39 21:59:39 31° 69° (ENE) 22:03:40 437.505/2401.250
GONETS M04 26 Nov 21:57:25 22:01:04 13° 287° (WNW) 22:04:44
DUCHIFAT 1 26 Nov 21:58:46 21:59:28 10° 89° (E) 22:00:10 145.980
RS-15 26 Nov 22:00:13 22:08:50 25° 18° (NNE) 22:17:39 29.354- 29.394
GOMX 1 26 Nov 22:08:32 22:10:28 12° 269° (W) 22:12:21 467.674
NANOSAT C BR1 26 Nov 22:16:26 22:19:16 17° 93° (E) 22:22:06 145.865
SPROUT 26 Nov 22:17:29 22:18:57 12° 61° (ENE) 22:20:24 437.525
AISAT 26 Nov 22:20:22 22:24:45 53° 260° (W) 22:29:09 437.250
UKube-1 26 Nov 22:21:19 22:24:14 17° 267° (W) 22:27:10 .
FUNcube-1 26 Nov 22:24:51 22:28:34 30° 263° (W) 22:32:16 145.935
QB50P1 26 Nov 22:26:04 22:29:24 22° 94° (E) 22:32:43 145.935-145.965
CUBEBUG 1 26 Nov 22:29:48 22:34:12 68° 74° (ENE) 22:38:38 437.445
BUGSAT 1 26 Nov 22:32:13 22:35:18 21° 94° (E) 22:38:21 437.445
Oscar 11 26 Nov 22:33:26 22:35:06 12° 270° (W) 22:36:46 145.826/435.025
TIGRISAT 26 Nov 22:34:21 22:38:33 41° 99° (E) 22:42:50 435.000
DELFI C3 26 Nov 22:42:09 22:42:44 10° 271° (W) 22:43:20 145.870
50 SAT 26 Nov 22:45:03 22:48:43 33° 263° (W) 22:52:24 437.505
UNISAT 6 26 Nov 22:48:23 22:52:48 60° 101° (E) 22:57:18 437.425
POPSAT HIP 1 26 Nov 22:50:29 22:54:30 41° 99° (E) 22:58:29 437.405
UWE-3 26 Nov 22:55:24 22:57:20 13° 269° (W) 22:59:16 435.000/436.395/437.385
CUBEBUG 2 26 Nov 22:58:13 22:59:08 11° 270° (W) 23:00:03 437.445
HUMSAT D 26 Nov 23:03:22 23:06:19 19° 267° (W) 23:09:16 437.325/437.525
CUSAT 1 26 Nov 23:16:10 23:20:38 41° 78° (ENE) 23:26:30 437.405
ISS 26 Nov 23:16:33 23:19:47 63° 142° (SE) 23:23:03 145.825
ANTELSAT 26 Nov 23:17:17 23:21:43 67° 285° (WNW) 23:26:14 437.575/2403.000
ITUPSAT 1 26 Nov 23:17:55 23:18:30 10° 58° (ENE) 23:19:05 437.325
POLYITAN 1 26 Nov 23:24:30 23:28:44 79° 284° (WNW) 23:32:57 437.675
QB50P2 26 Nov 23:26:08 23:30:23 76° 285° (WNW) 23:34:35 145.880/145.840
SWISSCUBE 26 Nov 23:26:25 23:28:53 14° 61° (ENE) 23:31:21 437.505
DUCHIFAT 1 26 Nov 23:31:36 23:35:47 67° 285° (WNW) 23:39:57 145.980
AUBIESAT-1 26 Nov 23:32:24 23:35:44 24° 60° (ENE) 23:39:18 437.475
ESTCUBE 1 26 Nov 23:32:42 23:36:31 26° 265° (W) 23:40:21 437.505/2401.250
TISAT 1 26 Nov 23:37:20 23:41:37 86° 256° (WSW) 23:45:54 437.305
M-CUBED/EXP-1 PRIME 26 Nov 23:38:00 23:41:35 29° 62° (ENE) 23:45:26 437.505
DANDE 26 Nov 23:46:02 23:50:33 64° 80° (E) 23:56:41 436.750
SPROUT 26 Nov 23:50:08 23:54:27 72° 258° (WSW) 23:58:46 437.525
NANOSAT C BR1 26 Nov 23:51:23 23:55:20 40° 289° (WNW) 23:59:16 145.865
BEESAT 26 Nov 23:55:39 23:59:29 25° 66° (ENE) 00:03:20 436.000
QB50P1 27 Nov 00:01:36 00:05:20 31° 291° (WNW) 00:09:03 145.935-145.965
BUGSAT 1 27 Nov 00:07:14 00:10:51 31° 290° (WNW) 00:14:26 437.445
CUBEBUG 1 27 Nov 00:09:34 00:11:02 11° 270° (W) 00:12:29 437.445
TIGRISAT 27 Nov 00:11:50 00:15:02 20° 294° (WNW) 00:18:17 435.000
RS-15 27 Nov 00:13:19 00:24:20 58° 48° (NE) 00:35:46 29.354- 29.394
UNISAT 6 27 Nov 00:26:43 00:29:08 15° 297° (WNW) 00:31:35 437.425
POPSAT HIP 1 27 Nov 00:27:16 00:30:06 18° 295° (WNW) 00:32:56 437.405
MaSat-1 27 Nov 00:40:51 00:43:06 47° 246° (WSW) 00:45:26 437.345
ITUPSAT 1 27 Nov 00:50:46 00:55:34 82° 75° (ENE) 01:00:25 437.325
ISS 27 Nov 00:53:53 00:56:39 25° 340° (NNW) 00:59:27 145.825
CUSAT 1 27 Nov 00:59:42 01:03:42 25° 266° (W) 01:08:39 437.405
SWISSCUBE 27 Nov 01:01:21 01:06:09 72° 258° (WSW) 01:10:59 437.505
STARS 27 Nov 01:01:28 01:04:05 16° 63° (ENE) 01:06:43 437.465
AUBIESAT-1 27 Nov 01:06:47 01:10:31 34° 259° (W) 01:14:36 437.475
M-CUBED/EXP-1 PRIME 27 Nov 01:13:06 01:16:35 27° 261° (W) 01:20:22 437.505
YUBILEINY 27 Nov 01:13:47 01:20:27 25° 80° (E) 01:27:06 435.215
DANDE 27 Nov 01:31:11 01:33:57 15° 268° (W) 01:37:07 436.750
BEESAT 27 Nov 01:32:41 01:37:07 38° 262° (W) 01:41:36 436.000
Gurwin Techsat 1B 27 Nov 01:41:41 01:44:24 14° 89° (E) 01:47:06 435.225
KKS-1 27 Nov 01:42:12 01:46:34 60° 73° (ENE) 01:50:58 437.445
Oscar 19 27 Nov 01:45:35 01:50:45 68° 102° (ESE) 01:55:54 437.125/150
